Location: Fort Worth, Tx
(32.7431°N, 97.3695°W)
Time: 05:12:58
(UTC-05:00)

Explorer 7 - All Passes

Search period start: 23 February 2024 00:00
Search period end: 04 March 2024 00:00
Orbit: 470 x 632 km, 50.3° (Epoch: 22 February)

Date Brightness Start Highest point End Pass type
(mag) Time Alt. Az. Time Alt. Az. Time Alt. Az.
23 Feb - 09:27:34 10° SW 09:31:12 78° NW 09:34:58 10° NE daylight
23 Feb - 11:09:43 10° NW 11:11:33 13° NNW 11:13:26 10° N daylight
23 Feb - 16:11:27 10° NNW 16:15:19 36° NE 16:19:22 10° ESE daylight
23 Feb - 17:51:24 10° WNW 17:55:06 28° SW 17:58:55 10° S daylight
24 Feb - 07:44:46 10° SSE 07:46:38 14° SE 07:48:31 10° E daylight
24 Feb - 09:22:28 10° WSW 09:26:03 51° NW 09:29:43 10° NE daylight
24 Feb - 11:05:50 10° NNW 11:06:36 10° NNW 11:07:21 10° N daylight
24 Feb - 14:28:14 10° N 14:29:37 11° NNE 14:31:02 10° NE daylight
24 Feb - 16:06:09 10° NW 16:10:11 50° NE 16:14:26 10° ESE daylight
24 Feb - 17:46:42 10° W 17:49:49 20° SW 17:53:00 10° S daylight
25 Feb - 07:38:33 10° S 07:41:20 20° SE 07:44:07 10° E visible
25 Feb - 09:17:32 10° WSW 09:20:55 35° NW 09:24:23 10° NNE daylight
25 Feb - 14:22:27 10° N 14:24:38 14° NNE 14:26:52 10° ENE daylight
25 Feb - 16:00:52 10° NW 16:05:00 72° NE 16:09:21 10° SE daylight
25 Feb - 17:42:25 10° W 17:44:30 13° SW 17:46:37 10° SSW daylight
26 Feb - 07:32:46 10° SSW 07:36:01 31° SE 07:39:19 10° ENE visible
26 Feb - 09:12:42 10° W 09:15:48 25° NNW 09:18:58 10° NNE daylight
26 Feb - 14:16:52 10° NNW 14:19:36 17° NNE 14:22:25 10° ENE daylight
26 Feb - 15:55:40 10° NW 15:59:47 79° SW 16:04:07 10° SE daylight
27 Feb - 07:27:13 10° SSW 07:30:45 48° SE 07:34:18 10° ENE visible
27 Feb - 09:08:00 10° WNW 09:10:43 19° NNW 09:13:28 10° NNE daylight
27 Feb - 14:11:21 10° NNW 14:14:31 22° NNE 14:17:48 10° E daylight
27 Feb - 15:50:31 10° WNW 15:54:31 53° SW 15:58:44 10° SSE daylight
28 Feb - 07:21:49 10° SW 07:25:29 77° SE 07:29:08 10° NE visible
28 Feb - 09:03:27 10° WNW 09:05:38 15° NNW 09:07:50 10° N daylight
28 Feb - 14:05:53 10° NNW 14:09:23 28° NE 14:13:01 10° E daylight
28 Feb - 15:45:27 10° WNW 15:49:13 36° SW 15:53:10 10° SSE daylight
29 Feb - 07:16:35 10° SW 07:20:14 69° NW 07:23:54 10° NE visible
29 Feb - 08:59:11 10° NW 09:00:35 12° NNW 09:02:01 10° N daylight
29 Feb - 14:00:28 10° NNW 14:04:12 38° NE 14:08:06 10° ESE daylight
29 Feb - 15:40:32 10° WNW 15:43:53 24° SW 15:47:23 10° S daylight
01 Mar - 05:33:18 10° SSE 05:35:31 15° SE 05:37:44 10° E visible
01 Mar - 07:11:27 10° WSW 07:15:00 45° NW 07:18:32 10° NE visible
01 Mar - 12:17:17 10° N 12:18:30 11° NNE 12:19:43 10° NE daylight
01 Mar - 13:55:05 10° NW 13:58:58 54° NE 14:03:03 10° ESE daylight
01 Mar - 15:35:52 10° W 15:38:32 17° SW 15:41:15 10° S daylight
02 Mar - 05:27:10 10° S 05:30:08 23° SE 05:33:05 10° ENE visible
02 Mar - 07:06:28 10° W 07:09:46 32° NW 07:13:06 10° NNE visible
02 Mar - 12:11:22 10° N 12:13:25 14° NNE 12:15:31 10° ENE daylight
02 Mar - 13:49:44 10° NW 13:53:42 79° NE 13:57:52 10° SE daylight
02 Mar - 15:31:57 10° WSW 15:33:08 11° SW 15:34:19 10° SW daylight
03 Mar - 05:21:22 10° SSW 05:24:46 35° SE 05:28:08 10° ENE visible
03 Mar - 07:01:35 10° W 07:04:35 23° NNW 07:07:35 10° NNE visible
03 Mar - 12:05:39 10° NNW 12:08:17 17° NNE 12:11:00 10° ENE daylight
03 Mar - 13:44:28 10° NW 13:48:23 71° SW 13:52:30 10° SE daylight
